Change the Weather History Date:

Tuesday, August 20, 2013

  Actual Average Record
Temperature  
Mean Temperature 80 °F 73 °F  
Max Temperature 98 °F 87 °F 103 °F (1974)
Min Temperature 62 °F 60 °F 48 °F (1950)
Cooling Degree Days 14    
Growing Degree Days 30 (Base 50)    
Moisture  
Dew Point 62 °F    
Average Humidity 58    
Maximum Humidity 93    
Minimum Humidity 30    
Precipitation  
Precipitation 0.00 in 0.09 in 2.10 in (1964)
Month to date precipitation 1.04 2.27  
Year to date precipitation 8.72 16.84  
Sea Level Pressure  
Sea Level Pressure 29.88 in    
Wind  
Wind Speed 9 mph (South)    
Max Wind Speed 20 mph    
Max Gust Speed 28 mph    
Visibility 9 miles    
Events      
T = Trace of Precipitation, MM = Missing Value Source: NWS Daily Summary

Daily Weather History Graph

Daily Weather History Graph

Search for Another Location

Airport or City:

Trip Planner

Search our weather history database for the weather conditions in past years. The results will help you decide how hot, cold, wet, or windy it might be!

Date:

Astronomy

Aug. 20, 2013 Rise Set
Actual Time 6:58 AM CDT 8:31 PM CDT
Civil Twilight 6:30 AM CDT 9:00 PM CDT
Nautical Twilight 5:55 AM CDT 9:34 PM CDT
Astronomical Twilight 5:18 AM CDT 10:11 PM CDT
Moon 8:04 PM CDT (8/20) 6:30 AM CDT (8/20)
Length of Visible Light 14h 30m
Length of Day
13h 33m
Full, 100% of the Moon is Illuminated
Aug 20
Full
Aug 20
Full
Aug 28
Last Quarter
Sep 5
New
Sep 12
First Quarter

Hourly Weather History & Observations

Time (CDT) Temp. Heat Index Dew Point Humidity Pressure Visibility Wind Dir Wind Speed Gust Speed Precip Events Conditions
12:53 AM 72.0 °F - 63.0 °F 73% 29.90 in 10.0 mi South 9.2 mph - N/A   Clear
1:53 AM 71.1 °F - 63.0 °F 75% 29.90 in 10.0 mi SSW 6.9 mph - N/A   Clear
2:53 AM 68.0 °F - 62.1 °F 81% 29.89 in 9.0 mi SSW 5.8 mph - N/A   Clear
3:53 AM 66.9 °F - 62.1 °F 84% 29.89 in 8.0 mi SW 4.6 mph - N/A   Clear
4:53 AM 64.9 °F - 61.0 °F 87% 29.89 in 8.0 mi SSW 5.8 mph - N/A   Clear
5:53 AM 64.9 °F - 61.0 °F 87% 29.89 in 7.0 mi South 4.6 mph - N/A   Clear
6:53 AM 62.1 °F - 60.1 °F 93% 29.90 in 5.0 mi SSE 5.8 mph - N/A   Clear
7:53 AM 64.0 °F - 61.0 °F 90% 29.92 in 4.0 mi South 5.8 mph - N/A   Clear
8:53 AM 68.0 °F - 62.1 °F 81% 29.93 in 5.0 mi South 3.5 mph - N/A   Haze
9:53 AM 75.9 °F - 63.0 °F 64% 29.92 in 8.0 mi SSW 9.2 mph - N/A   Clear
10:53 AM 82.0 °F 83.1 °F 63.0 °F 52% 29.91 in 9.0 mi SSW 9.2 mph - N/A   Clear
11:53 AM 87.1 °F 88.3 °F 64.0 °F 46% 29.90 in 10.0 mi South 9.2 mph - N/A   Clear
12:53 PM 93.0 °F 94.2 °F 63.0 °F 37% 29.89 in 10.0 mi South 12.7 mph 19.6 mph N/A   Clear
1:53 PM 95.0 °F 96.0 °F 63.0 °F 34% 29.87 in 10.0 mi South 18.4 mph 24.2 mph N/A   Clear
2:53 PM 97.0 °F 97.8 °F 62.1 °F 31% 29.86 in 10.0 mi South 16.1 mph 21.9 mph N/A   Clear
3:53 PM 97.0 °F 97.4 °F 61.0 °F 30% 29.85 in 10.0 mi SSW 17.3 mph 24.2 mph N/A   Clear
4:53 PM 97.0 °F 97.4 °F 61.0 °F 30% 29.84 in 10.0 mi South 15.0 mph 27.6 mph N/A   Clear
5:53 PM 93.9 °F 94.8 °F 62.1 °F 35% 29.83 in 10.0 mi South 19.6 mph - N/A   Clear
6:53 PM 93.0 °F 93.8 °F 62.1 °F 36% 29.84 in 10.0 mi South 18.4 mph 26.5 mph N/A   Clear
7:53 PM 90.0 °F 90.0 °F 61.0 °F 38% 29.85 in 10.0 mi South 15.0 mph - N/A   Clear
8:53 PM 84.9 °F 85.0 °F 61.0 °F 44% 29.87 in 10.0 mi South 9.2 mph - N/A   Clear
9:53 PM 82.0 °F 83.1 °F 63.0 °F 52% 29.89 in 10.0 mi South 9.2 mph - N/A   Clear
10:53 PM 81.0 °F 81.9 °F 62.1 °F 52% 29.89 in 10.0 mi South 10.4 mph - N/A   Clear
11:53 PM 79.0 °F - 62.1 °F 56% 29.88 in 10.0 mi South 13.8 mph - N/A   Clear